Regional Weather Roundup
Issued by NWS

Home | Current Version | Previous Version | Graphics & Text | Print | Product List | Glossary On
Versions: 1 2 3 4 5 6 7 8 9 10 11 12 13 14 15 16 17 18 19 20 21 22 23 24 25 26 27 28 29 30 31 32 33 34 35 36 37 38 39 40 41 42 43 44 45 46 47 48 49 50
714
ASUS43 KDTX 061910
RWRMI
MICHIGAN HOURLY REGIONAL WEATHER ROUNDUP
NATIONAL WEATHER SERVICE DETROIT/PONTIAC MI
200 PM EST SAT FEB 06 2016

NOTE: "FAIR" INDICATES FEW OR NO CLOUDS BELOW 12,000 FEET WITH NO
SIGNIFICANT WEATHER AND/OR OBSTRUCTION TO VISIBILITY.

MIZ047>049-052>055-059>063-066>070-074>076-081>083-062000-
SOUTHEAST LOWER MICHIGAN

CITY           SKY/WX    TMP DP  RH WIND       PRES   REMARKS
ADRIAN         MOSUNNY   39  24  55 SW16      30.21F WCI  30
ALMA           CLOUDY    35  25  67 SW13G20   30.14F WCI  26
ANN ARBOR      SUNNY     37  21  52 SW13      30.18F WCI  29
BAD AXE        MOSUNNY   37  23  57 SW21G28   30.12F WCI  26
CARO           PTSUNNY   37  21  54 SW17      30.13F WCI  27
DETROIT CITY   PTSUNNY   38  18  44 SW14      30.19F WCI  30
DETROIT        MOSUNNY   39  22  50 SW12      30.20F WCI  32
FLINT          SUNNY     38  20  48 W16       30.16F WCI  29
GROSSE ILE     SUNNY     37  21  52 SW10      30.20F WCI  30
HILLSDALE      SUNNY     34  21  57 SW10G16   30.17F WCI  26
HOWELL         SUNNY     37  21  52 SW13      30.16F WCI  29

CITY           SKY/WX    TMP DP  RH WIND       PRES   REMARKS
JACKSON        SUNNY     36  20  52 W13       30.17F WCI  27
LAMBERTVILLE   SUNNY     36  24  63 SW10      30.23S WCI  28
LANSING        CLOUDY    36  19  50 SW16G23   30.16F WCI  26
LAPEER         FAIR      37  17  44 SW17G25   30.15F WCI  28
MASON          MOSUNNY   35  21  56 SW8       30.16F WCI  28
MONROE         SUNNY     37  24  60 SW12      30.21F WCI  29
MT. CLEMENS    PTSUNNY   40  17  39 SW15      30.16F WCI  31
PONTIAC        PTSUNNY   37  16  42 SW13      30.14F WCI  29
PORT HOPE        N/A     34  23  64 SW13G24   30.09F WCI  25
PORT HURON     MOSUNNY   37  23  56 SW14      30.17F WCI  29
TRI CITIES     CLOUDY    36  23  59 SW20      30.13F WCI  25
MIDLAND        PTSUNNY   36  21  54 SW14G23   30.12F WCI  27
TROY           PTSUNNY   40  19  43 SW12      30.18F WCI  33
SAGINAW HB     CLOUDY    36  23  60 SW18      30.14F WCI  25
$$
MIZ043>046-050>051-056>058-064>065-071>073-077>080-062000-
SOUTHWEST LOWER MICHIGAN

CITY           SKY/WX    TMP DP  RH WIND       PRES   REMARKS
BATTLE CREEK   PTSUNNY   34  22  61 SW15      30.19F WCI  24
BENTON HARBOR  SUNNY     37  20  50 SW13      30.20F WCI  29
BIG RAPIDS     CLOUDY    32  25  76 W15       30.11S WCI  22
COLDWATER      SUNNY     34  23  64 W9        30.19F WCI  27
FREMONT        CLOUDY    32  26  77 SW12      30.14F WCI  23
HOLLAND        CLOUDY    34  26  72 SW16      30.18F WCI  24
GRAND RAPIDS   CLOUDY    34  23  64 W16       30.17F WCI  24
IONIA          CLOUDY    32  24  72 SW14      30.15F WCI  22
KALAMAZOO      MOSUNNY   36  20  52 SW13      30.19F WCI  27
LUDINGTON      CLOUDY    32  26  80 W9G16     30.12F WCI  24
MARSHALL       MOSUNNY   34  21  59 SW12      30.18F WCI  25
MOUNT PLEASANT CLOUDY    36  22  57 SW14      30.11F WCI  27
MUSKEGON       CLOUDY    34  25  69 SW13      30.16F WCI  25
SOUTH HAVEN    MOSUNNY   35  25  66 SW14      30.19F WCI  26
$$
MIZ016>042-062000-
NORTHERN LOWER MICHIGAN

CITY           SKY/WX    TMP DP  RH WIND       PRES   REMARKS
ALPENA         CLOUDY    32  23  69 W13G22    30.05F WCI  22
BEAVER ISLAND  CLOUDY    29  21  70 W14       30.05S WCI  19
BELLAIRE       CLOUDY    30  24  77 SW10G16   30.09F WCI  21
CADILLAC       CLOUDY    29  25  82 SW12G20   30.07S WCI  20
CHARLEVOIX     CLOUDY    30  24  77 SW10G17   30.09F WCI  21
FRANKFORT      CLOUDY    30  25  82 W7        30.10F WCI  23
GAYLORD        CLOUDY    27  23  85 W14G21    30.03F WCI  16
GRAYLING       CLOUDY    28  25  86 SW9G16    30.06F FOG     WCI  20
HARBOR SPRINGS CLOUDY    30  23  74 W9G16     30.04F WCI  22
HOUGHTON LAKE  CLOUDY    30  22  72 W13G23    30.08F WCI  20
MANISTEE       CLOUDY    30  21  69 W9        30.12F WCI  22
OSCODA         CLOUDY    33  24  68 W16G23    30.07F WCI  23
PELLSTON       CLOUDY    30  21  69 W12G20    30.04F WCI  20
ROGERS CITY    CLOUDY    30  24  78 W14       30.05F WCI  19
TRAVERSE CITY  CLOUDY    31  24  75 W13G18    30.08F WCI  21
$$
MIZ007>008-015-062000-
EASTERN UPPER MICHIGAN

CITY           SKY/WX    TMP DP  RH WIND       PRES   REMARKS
KINROSS        CLOUDY    28  25  86 W12G17    30.00S WCI  18
MACKINAC ISLAN CLOUDY    30  23  75 SW14G22   30.02S WCI  19
NEWBERRY       CLOUDY    28  21  74 SW9       30.00F WCI  19
S. S. MARIE    FLURRIES  28  21  75 W12       29.98F WCI  18
MUNISING         N/A     32  18  56 W5        30.01F WCI  27
$$
MIZ004>006-011>014-085-062000-
CENTRAL UPPER MICHIGAN

CITY           SKY/WX    TMP DP  RH WIND       PRES   REMARKS
MANISTIQUE     MOSUNNY   31  20  64 SW9G16    30.03S WCI  23
ESCANABA       PTSUNNY   30  19  64 W12       30.05S WCI  21
MENOMINEE      CLOUDY    28  21  74 W6        30.08F WCI  22
SAWYER-GWINN   PTSUNNY   28  18  64 SW9       29.99F WCI  20
$$
MIZ001>003-009>011-084-062000-
WESTERN UPPER MICHIGAN

CITY           SKY/WX    TMP DP  RH WIND       PRES   REMARKS
IRON MOUNTAIN  CLOUDY    28  19  69 SW12      30.00F WCI  18
HOUGHTON       CLOUDY    27  19  72 W9        29.96F WCI  18
COPPER HARBOR    N/A     27  23  85 CALM      29.98F
IRONWOOD       CLOUDY    30  21  69 S8        29.93F WCI  23
$$

ABBREVIATIONS USED IN REMARKS
   TC - TEMPERATURE IN CELSIUS
  WCI - WIND CHILL INDEX
   HX - HEAT INDEX
  VSB - VISIBILITY





USA.gov is the U.S. government's official web portal to all federal, state and local government web resources and services.